This demonstration page uses our WeatherBlox Daily Observations layout. Learn more.

Left ArrowRight Arrow

Hourly Observations for August 13, 2022

Temp ( °F °C ) Dew Point ( °F °C ) Humidity (%) Winds ( mph kmh ) Pressure ( in mb ) Visibility ( mi km ) Precip ( " mm )
12:53 am 00:53 Clear 59 15 56 13.3 90 90 Calm 30.18 1022 10 16 0.00 0.00
1:53 am 01:53 Clear 58 14.4 56 13.3 93 93 Calm 30.17 1022 10 16 0.00 0.00
2:53 am 02:53 Clear 58 14.4 56 13.3 93 93 Calm 30.17 1022 10 16 0.00 0.00
3:53 am 03:53 Clear 56 13.3 54 12.2 93 93 Calm 30.16 1022 10 16 0.00 0.00
4:53 am 04:53 Clear 56 13.3 54 12.2 93 93 Calm 30.17 1022 10 16 0.00 0.00
5:53 am 05:53 Clear 55 12.8 54 12.2 96 96 Calm 30.18 1022 9 14 0.00 0.00
6:53 am 06:53 Sunny 54 12.2 52 11.1 93 93 Calm 30.19 1022 7 11 0.00 0.00
7:53 am 07:53 Sunny 58 14.4 56 13.3 93 93 Calm 30.19 1022 10 16 0.00 0.00
8:53 am 08:53 Sunny 65 18.3 57 13.9 76 76 Calm 30.19 1022 10 16 0.00 0.00
9:53 am 09:53 Sunny 70 21.1 58 14.4 66 66 Calm 30.19 1022 10 16 0.00 0.00
10:53 am 10:53 Sunny 74 23.3 59 15 60 60 Calm 30.18 1022 10 16 0.00 0.00
11:53 am 11:53 Sunny 77 25 53 11.7 43 43 Calm 30.17 1022 10 16 0.00 0.00
12:53 pm 12:53 Sunny 79 26.1 55 12.8 44 44 VRB 3 6 30.17 1022 10 16 0.00 0.00
1:53 pm 13:53 Sunny 79 26.1 54 12.2 42 42 VRB 3 6 30.14 1021 10 16 0.00 0.00
2:53 pm 14:53 Sunny 82 27.8 55 12.8 40 40 Calm 30.11 1020 10 16 0.00 0.00
3:53 pm 15:53 Sunny 82 27.8 53 11.7 37 37 E 3 6 30.09 1019 10 16 0.00 0.00
4:53 pm 16:53 Sunny 83 28.3 55 12.8 38 38 Calm 30.07 1018 10 16 0.00 0.00
5:53 pm 17:53 Sunny 75 23.9 64 17.8 69 69 Calm 30.05 1018 10 16 0.00 0.00
6:53 pm 18:53 Partly Cloudy 72 22.2 60 15.6 66 66 Calm 30.05 1018 10 16 0.00 0.00
7:53 pm 19:53 Sunny 72 22.2 63 17.2 73 73 Calm 30.04 1017 10 16 0.01 0.13
8:53 pm 20:53 Clear 70 21.1 63 17.2 78 78 Calm 30.04 1017 10 16 0.00 0.00
9:53 pm 21:53 Partly Cloudy 69 20.6 63 17.2 81 81 Calm 30.06 1018 10 16 0.00 0.00
10:53 pm 22:53 Cloudy 68 20 63 17.2 84 84 Calm 30.06 1018 10 16 0.00 0.00
11:53 pm 23:53 Cloudy 67 19.4 62 16.7 84 84 Calm 30.05 1018 10 16 0.00 0.00

Powered by AerisWeather